• In Schweiz
  • Länderverzeichnis
  • Für 7 Tage
  • Wassertemperatur
  • Satellitenkarten
  • Wetterkarte
  • Widgets
  • user-avatar
    Anmelden

    Stündliche Wetter Serednyaky

    Heute, 24 April, Dienstag

    Zeit Temperatur Niederschläge Wind Luftdruck Luftfeuchtigkeit
    00:00 +5°C° 0 mm 2 m/S 748 mmHg 55%
    01:00 +4°C° 0 mm 2 m/S 748 mmHg 56%
    02:00 +4°C° 0 mm 2 m/S 748 mmHg 57%
    03:00 +4°C° 0 mm 2 m/S 748 mmHg 59%
    04:00 +4°C° 0 mm 2 m/S 748 mmHg 60%
    05:00 +4°C° 0 mm 2 m/S 748 mmHg 62%
    06:00 +6°C° 0 mm 2 m/S 747 mmHg 59%
    07:00 +8°C° 0 mm 3 m/S 747 mmHg 57%
    08:00 +10°C° 0 mm 3 m/S 747 mmHg 55%
    09:00 +12°C° 0 mm 4 m/S 747 mmHg 54%
    10:00 +14°C° 0 mm 4 m/S 746 mmHg 52%
    11:00 +15°C° 0 mm 4 m/S 746 mmHg 50%
    12:00 +15°C° 0,4 mm 4 m/S 746 mmHg 56%
    13:00 +15°C° 0,4 mm 4 m/S 745 mmHg 61%
    14:00 +15°C° 0,4 mm 4 m/S 745 mmHg 67%
    15:00 +14°C° 0,4 mm 3 m/S 745 mmHg 71%
    16:00 +13°C° 0,4 mm 3 m/S 744 mmHg 76%
    17:00 +14°C° 0,4 mm 2 m/S 744 mmHg 81%
    18:00 +13°C° 0 mm 2 m/S 744 mmHg 85%
    19:00 +12°C° 0 mm 2 m/S 744 mmHg 88%
    20:00 +11°C° 0 mm 1 m/S 744 mmHg 92%
    21:00 +11°C° 0 mm 1 m/S 744 mmHg 93%
    22:00 +11°C° 0 mm 1 m/S 744 mmHg 93%
    23:00 +9°C° 0 mm 2 m/S 744 mmHg 94%

    Morgen, 25 April, Mittwoch

    Zeit Temperatur Niederschläge Wind Luftdruck Luftfeuchtigkeit
    00:00 +9°C° 0 mm 2 m/S 744 mmHg 94%
    01:00 +9°C° 0 mm 2 m/S 744 mmHg 94%
    02:00 +9°C° 0 mm 2 m/S 744 mmHg 94%
    03:00 +9°C° 0 mm 2 m/S 744 mmHg 94%
    04:00 +9°C° 0 mm 2 m/S 744 mmHg 94%
    05:00 +9°C° 0 mm 2 m/S 744 mmHg 95%
    06:00 +10°C° 0 mm 3 m/S 745 mmHg 88%
    07:00 +12°C° 0 mm 3 m/S 745 mmHg 82%
    08:00 +13°C° 0 mm 3 m/S 745 mmHg 75%
    09:00 +14°C° 0 mm 4 m/S 745 mmHg 68%
    10:00 +17°C° 0 mm 4 m/S 746 mmHg 61%
    11:00 +17°C° 0 mm 5 m/S 746 mmHg 54%
    12:00 +17°C° 0,1 mm 4 m/S 745 mmHg 59%
    13:00 +17°C° 0,1 mm 4 m/S 745 mmHg 63%
    14:00 +17°C° 0,1 mm 4 m/S 745 mmHg 67%
    15:00 +17°C° 0,1 mm 4 m/S 744 mmHg 67%
    16:00 +18°C° 0,1 mm 4 m/S 744 mmHg 67%
    17:00 +19°C° 0,1 mm 4 m/S 744 mmHg 66%
    18:00 +17°C° 0,2 mm 4 m/S 744 mmHg 72%
    19:00 +16°C° 0,2 mm 3 m/S 744 mmHg 79%
    20:00 +15°C° 0,2 mm 2 m/S 744 mmHg 85%
    21:00 +14°C° 0 mm 2 m/S 744 mmHg 86%
    22:00 +14°C° 0 mm 2 m/S 744 mmHg 87%
    23:00 +13°C° 0 mm 2 m/S 744 mmHg 88%

    übermorgen, 26 April, Donnerstag

    Zeit Temperatur Niederschläge Wind Luftdruck Luftfeuchtigkeit
    00:00 +12°C° 0,1 mm 3 m/S 744 mmHg 89%
    01:00 +12°C° 0,1 mm 3 m/S 744 mmHg 89%
    02:00 +12°C° 0,1 mm 3 m/S 743 mmHg 90%
    03:00 +12°C° 0,2 mm 4 m/S 743 mmHg 91%
    04:00 +12°C° 0,2 mm 4 m/S 743 mmHg 92%
    05:00 +12°C° 0,2 mm 5 m/S 743 mmHg 93%
    06:00 +14°C° 0 mm 5 m/S 743 mmHg 87%
    07:00 +16°C° 0 mm 6 m/S 743 mmHg 81%
    08:00 +17°C° 0 mm 7 m/S 743 mmHg 75%
    09:00 +20°C° 0,2 mm 7 m/S 743 mmHg 69%
    10:00 +21°C° 0,2 mm 8 m/S 743 mmHg 63%
    11:00 +23°C° 0,2 mm 9 m/S 743 mmHg 57%
    12:00 +23°C° 0,2 mm 9 m/S 743 mmHg 55%
    13:00 +24°C° 0,2 mm 9 m/S 743 mmHg 52%
    14:00 +24°C° 0,2 mm 8 m/S 743 mmHg 50%
    15:00 +23°C° 0 mm 7 m/S 743 mmHg 53%
    16:00 +23°C° 0 mm 5 m/S 743 mmHg 56%
    17:00 +22°C° 0 mm 4 m/S 744 mmHg 60%
    18:00 +20°C° 0 mm 3 m/S 744 mmHg 64%
    19:00 +19°C° 0 mm 2 m/S 744 mmHg 69%
    20:00 +17°C° 0 mm 2 m/S 745 mmHg 74%
    21:00 +16°C° 0 mm 1 m/S 745 mmHg 75%
    22:00 +16°C° 0 mm 1 m/S 745 mmHg 77%
    23:00 +14°C° 0 mm 0 m/S 745 mmHg 78%

    27 April, Freitag

    Zeit Temperatur Niederschläge Wind Luftdruck Luftfeuchtigkeit
    00:00 +15°C° 0,5 mm 1 m/S 745 mmHg 80%
    01:00 +15°C° 0,5 mm 1 m/S 745 mmHg 82%
    02:00 +15°C° 0,5 mm 2 m/S 745 mmHg 84%
    03:00 +14°C° 2,5 mm 2 m/S 746 mmHg 88%
    04:00 +14°C° 2,5 mm 2 m/S 746 mmHg 91%
    05:00 +13°C° 2,5 mm 3 m/S 746 mmHg 94%
    06:00 +14°C° 1,5 mm 2 m/S 746 mmHg 92%
    07:00 +14°C° 1,5 mm 2 m/S 746 mmHg 89%
    08:00 +14°C° 1,5 mm 2 m/S 746 mmHg 87%
    09:00 +16°C° 0 mm 2 m/S 747 mmHg 80%
    10:00 +17°C° 0 mm 3 m/S 747 mmHg 73%
    11:00 +18°C° 0 mm 3 m/S 747 mmHg 66%
    12:00 +19°C° 0,1 mm 4 m/S 747 mmHg 64%
    13:00 +19°C° 0,1 mm 4 m/S 747 mmHg 63%
    14:00 +19°C° 0,1 mm 4 m/S 747 mmHg 61%
    15:00 +19°C° 0 mm 4 m/S 748 mmHg 60%
    16:00 +18°C° 0 mm 4 m/S 748 mmHg 60%
    17:00 +18°C° 0 mm 4 m/S 748 mmHg 59%
    18:00 +17°C° 0 mm 3 m/S 748 mmHg 62%
    19:00 +14°C° 0 mm 3 m/S 749 mmHg 64%
    20:00 +13°C° 0 mm 2 m/S 750 mmHg 67%
    21:00 +12°C° 0 mm 2 m/S 750 mmHg 67%
    22:00 +12°C° 0 mm 2 m/S 750 mmHg 66%
    23:00 +10°C° 0 mm 2 m/S 751 mmHg 66%

    28 April, Samstag

    Zeit Temperatur Niederschläge Wind Luftdruck Luftfeuchtigkeit
    00:00 +9°C° 0 mm 2 m/S 751 mmHg 67%
    01:00 +9°C° 0 mm 2 m/S 751 mmHg 68%
    02:00 +8°C° 0 mm 2 m/S 752 mmHg 70%
    03:00 +8°C° 0 mm 2 m/S 752 mmHg 71%
    04:00 +9°C° 0 mm 1 m/S 752 mmHg 73%
    05:00 +9°C° 0 mm 1 m/S 752 mmHg 74%
    06:00 +10°C° 0 mm 1 m/S 752 mmHg 69%
    07:00 +12°C° 0 mm 1 m/S 753 mmHg 64%
    08:00 +14°C° 0 mm 2 m/S 753 mmHg 59%
    09:00 +15°C° 0 mm 2 m/S 753 mmHg 54%
    10:00 +18°C° 0 mm 1 m/S 753 mmHg 48%
    11:00 +19°C° 0 mm 1 m/S 753 mmHg 43%
    12:00 +19°C° 0 mm 1 m/S 753 mmHg 42%
    13:00 +20°C° 0 mm 1 m/S 752 mmHg 40%
    14:00 +20°C° 0 mm 1 m/S 752 mmHg 39%
    15:00 +20°C° 0 mm 1 m/S 752 mmHg 42%
    16:00 +20°C° 0 mm 1 m/S 752 mmHg 45%
    17:00 +20°C° 0 mm 1 m/S 751 mmHg 48%
    18:00 +17°C° 0 mm 2 m/S 751 mmHg 51%
    19:00 +16°C° 0 mm 2 m/S 751 mmHg 54%
    20:00 +15°C° 0 mm 2 m/S 751 mmHg 56%
    21:00 +14°C° 0 mm 2 m/S 751 mmHg 58%
    22:00 +12°C° 0 mm 3 m/S 751 mmHg 60%
    23:00 +11°C° 0 mm 3 m/S 751 mmHg 62%

    29 April, Sonntag

    Zeit Temperatur Niederschläge Wind Luftdruck Luftfeuchtigkeit
    00:00 +11°C° 0 mm 3 m/S 751 mmHg 62%
    01:00 +11°C° 0 mm 3 m/S 751 mmHg 63%
    02:00 +11°C° 0 mm 3 m/S 750 mmHg 64%
    03:00 +11°C° 0 mm 4 m/S 750 mmHg 65%
    04:00 +11°C° 0 mm 4 m/S 750 mmHg 66%
    05:00 +11°C° 0 mm 4 m/S 750 mmHg 67%
    06:00 +12°C° 0,1 mm 4 m/S 750 mmHg 66%
    07:00 +14°C° 0,1 mm 5 m/S 750 mmHg 65%
    08:00 +15°C° 0,1 mm 5 m/S 750 mmHg 65%
    09:00 +17°C° 0,2 mm 5 m/S 749 mmHg 64%
    10:00 +20°C° 0,2 mm 5 m/S 749 mmHg 63%
    11:00 +22°C° 0,2 mm 5 m/S 749 mmHg 62%
    12:00 +22°C° 0,4 mm 4 m/S 749 mmHg 61%
    13:00 +23°C° 0,4 mm 4 m/S 748 mmHg 60%
    14:00 +23°C° 0,4 mm 4 m/S 748 mmHg 59%
    15:00 +24°C° 0,3 mm 3 m/S 748 mmHg 61%
    16:00 +24°C° 0,3 mm 3 m/S 748 mmHg 62%
    17:00 +24°C° 0,3 mm 2 m/S 747 mmHg 64%
    18:00 +21°C° 0,3 mm 2 m/S 747 mmHg 69%
    19:00 +20°C° 0,3 mm 2 m/S 747 mmHg 73%
    20:00 +18°C° 0,3 mm 2 m/S 747 mmHg 78%
    21:00 +18°C° 0,3 mm 2 m/S 748 mmHg 79%
    22:00 +17°C° 0,3 mm 2 m/S 748 mmHg 79%
    23:00 +17°C° 0,3 mm 2 m/S 748 mmHg 80%
    Mehr zeigen